Preview of NWS' New Version of Forecast
This preview is not operational and should not be used for support decisions.

Regional Weather Roundup (RWR)

Issued by Gray - Portland, ME (GYX)

                            
000
ASUS41 KGYX 172305
RWRGYX
WEATHER ROUNDUP FOR MAINE AND NEW HAMPSHIRE
NATIONAL WEATHER SERVICE GRAY ME
700 PM EDT MON JUN 17 2019

MEZ002-005-006-010-012-015-018-020-021-024-026-027-029-180000-
MAINE
  
CITY           SKY/WX    TMP DP  RH WIND       PRES   REMARKS
PORTLAND       FAIR      67  52  58 S10       29.93S                  
SANFORD        FAIR      74  58  57 S3        29.94R                  
BAR HARBOR     FAIR      73  48  41 VRB5      29.93R                  
WISCASSET      FAIR      69  50  50 SW7       29.95R                  
ROCKLAND       FAIR      69  55  60 SW7       29.93R                  
FRYEBURG       FAIR      77  45  32 NW6       29.93S                  
LEWISTONAUBURN FAIR      77  45  32 NW6       29.93R                  
AUGUSTA        FAIR      76  46  34 NW7       29.93R                  
WATERVILLE     FAIR      74  49  41 NE7       29.91R                  
BANGOR         FAIR      73  45  36 N10       29.93S                  
GREENVILLE       N/A     64  42  44 NW8       29.95R                  
MILLINOCKET    FAIR      71  42  35 NW6       29.94R                  
HOULTON        FAIR      68  42  38 NW5       29.90S                  
PRESQUE ISLE   FAIR      68  43  40 W6        29.92R                  
FRENCHVILLE    PTSUNNY   68  44  42 NW8       29.90F                  
CARIBOU        FAIR      67  43  41 W3        29.90S                  
$$

NHZ002-005-008-009-011-012-014-180000-
NEW HAMPSHIRE
  
CITY           SKY/WX    TMP DP  RH WIND       PRES   REMARKS
PORTSMOUTH     PTSUNNY   69  55  59 SE7       29.92S                  
ROCHESTER      FAIR      78  52  40 VRB5      29.93S                  
NASHUA         FAIR      77  59  53 VRB6      29.95S                  
MANCHESTER     FAIR      78  57  48 S8        29.93R                  
CONCORD        FAIR      79  52  38 NW6       29.94S                  
LACONIA        FAIR      76  49  38 W5        29.95S                  
PLYMOUTH       FAIR      75  42  31 NW8       29.95S                  
BERLIN         FAIR      72  42  34 NW8       29.97S                  
WHITEFIELD     NOT AVBL                                               
JAFFREY        FAIR      74  56  53 SW5       29.98S                  
KEENE          FAIR      76  58  53 SW7       29.95S                  
LEBANON        FAIR      78  49  35 N5        29.95S                  
MT WASHINGTON  MOSUNNY   46  39  76 W28G36      N/A                   
$$

VTZ005-007-008-180000-
VERMONT
  
CITY           SKY/WX    TMP DP  RH WIND       PRES   REMARKS
ST JOHNSBURY     N/A     72  39  30 MISG      29.95S                  
MONTPELIER     FAIR      70  45  40 N8        30.02S                  
BURLINGTON     FAIR      74  43  32 N5        29.97S                  
$$

MAZ007-012-024-CTZ003-RIZ002-NYZ038-NYZ072-180000-
SOUTHERN NEW ENGLAND AND NY
  
CITY           SKY/WX    TMP DP  RH WIND       PRES   REMARKS
BOSTON         PTSUNNY   72  58  61 SE7       29.95F                  
WORCESTER      FAIR      72  57  59 W6        29.99F                  
NANTUCKET      FAIR      62  56  80 SE5       29.98S                  
PROVIDENCE     PTSUNNY   71  52  50 S8        29.97S                  
HARTFORD       PTSUNNY   78  62  57 S5        29.95F                  
ALBANY         PTSUNNY   77  55  46 S3        29.96F                  
NEW YORK CITY  PTSUNNY   75  64  68 S8        29.97R                  
$$

ANZ081-ANZ082-ANZ150-NHZ014-MEZ023>029-180000-
COASTAL MARINE OBSERVATIONS
  
STATION/POSITION TIME  TEMP    WIND        PRES    WAVE
                       AIR SEA DIR/SP/G            HT/PER
                 (UTC) (F)     (DEG/KT/KT) (MB)    (FT/S)
ISLE OF SHOALS   2200   66     180/ 23/ 23 1013.2F
JEFFREYS LEDGE   2238      58                N/A     2/ 8
CASHES LEDGE BUO 2250   57 53  210/  8/ 10 1014.7R   2/ 7
GEORGES BANK BUO 2250   52 51  270/  4/  6 1015.7R   5/ 8
$$

.............KEY..............
   WCI - WIND CHILL
   TC  - TEMPERATURE IN CELSIUS
   VSB - VISIBILITY IN MILES
   HX  - HEAT INDEX
   FAIR- INDICATES FEW OR NO CLOUDS BELOW 12,000 FT, WITH NO 
         SIGNIFICANT WEATHER AND/OR OBSTRUCTIONS TO VISIBILITY.